Regional Weather Roundup
Issued by NWS

Home | Current Version | Previous Version | Graphics & Text | Print | Product List | Glossary On
Versions: 1 2 3 4 5 6 7 8 9 10 11 12 13 14 15 16 17 18 19 20 21 22 23 24 25 26 27 28 29 30 31 32 33 34 35 36 37 38 39 40 41 42 43 44 45 46 47 48 49 50
000
ASUS43 KBIS 042002
RWRND

NORTH DAKOTA REGIONAL WEATHER ROUNDUP
NATIONAL WEATHER SERVICE BISMARCK ND
300 PM CDT SAT JUL 04 2015

NOTE: "FAIR" INDICATES FEW OR NO CLOUDS BELOW 12,000 FEET WITH NO
SIGNIFICANT WEATHER AND/OR OBSTRUCTIONS TO VISIBILITY.


NDZ001>003-009>011-017-042100-
NORTHWEST NORTH DAKOTA

CITY           SKY/WX    TMP DP  RH WIND       PRES   REMARKS
WILLISTON      SUNNY     95  56  26 S8        29.68F HX  93
MINOT          SUNNY     87  65  47 S16G23    29.71F
$$

NDZ018>021-031>035-040>046-042100-
SOUTHWEST NORTH DAKOTA

CITY           SKY/WX    TMP DP  RH WIND       PRES   REMARKS
BISMARCK       SUNNY     87  67  51 S14       29.76F HX  90
DICKINSON      SUNNY     88  65  46 SW7       29.76F HX  90
GARRISON         N/A     86  69  56 S12       29.74F HX  90
HETTINGER ARPT SUNNY     88  64  44 S5        29.80S
$$

NDZ004>008-012>016-024-026-027-054-042100-
NORTHEAST NORTH DAKOTA

CITY           SKY/WX    TMP DP  RH WIND       PRES   REMARKS
GRAND FORKS    MOSUNNY   85  67  54 S15G21    29.78F HAZE
GRND FRKS AFB  SUNNY     84  68  58 S13G24    29.78F
DEVILS LAKE    SUNNY     88  63  42 SW15      29.75F
$$

NDZ022-023-025-028>030-036>039-047>053-042100-
SOUTHEAST NORTH DAKOTA

CITY           SKY/WX    TMP DP  RH WIND       PRES   REMARKS
FARGO          MOSUNNY   84  67  56 S13       29.82F HAZE
JAMESTOWN      SUNNY     85  64  49 S13       29.79F
$$



USA.gov is the U.S. government's official web portal to all federal, state and local government web resources and services.